Location: 22
(39.7117°N, 89.5929°W)
Time: 10:03:55
(UTC-05:00)

Transit 2A - Pass Details

Date: 11 August 2024
Orbit: 590 x 961 km, 66.7° (Epoch: 13 September)

Event Time Altitude Azimuth Distance (km) Brightness Sun altitude
Rises 11:47:57 0° 337° (NNW) 3,644 9.2 60.2°
Reaches altitude 10° 11:50:50 10° 347° (NNW) 2,702 8.7 60.6°
Maximum altitude 11:56:29 32° 49° (NE) 1,574 8.0 61.2°
Drops below altitude 10° 12:01:57 10° 112° (ESE) 2,620 9.3 61.8°
Sets 12:04:41 0° 122° (ESE) 3,517 9.8 62.1°
